1499461200.92,58265,17.06,74088.3,4.05,-13.23,-12.79,0,*7E
1499461202.18,58266,17.06,74090.5,4.05,-13.19,-12.79,0,*74
1499461203.43,58267,17.06,74094.0,4.03,-13.29,-12.83,0,*75
1499461204.66,58268,17.06,74098.5,4.03,-13.23,-12.79,0,*75
1499461205.89,58269,17.06,74098.5,4.03,-13.23,-12.79,0,*74
1499461207.15,58270,17.06,74094.5,4.05,-13.19,-12.75,0,*7F
1499461208.4,58271,17.06,74098.0,4.05,-13.19,-12.65,0,*7F
1499461209.63,58272,17.06,74100.3,4.07,-13.19,-12.65,0,*7E
1499461210.89,58273,17.06,74100.3,4.05,-13.19,-12.79,0,*70
1499461212.14,58274,17.06,74100.3,4.03,-13.37,-12.79,0,*7D
1499461213.4,58275,17.06,74096.3,4.05,-13.19,-12.75,0,*7A
1499461214.62,58276,17.06,74102.8,4.07,-13.19,-12.65,0,*7A
1499461215.88,58277,17.06,74106.5,4.05,-13.19,-12.75,0,*78
1499461217.13,58278,17.06,74106.8,4.05,-13.07,-12.65,0,*79
1499461218.39,58279,17.06,74110.3,4.05,-13.07,-12.75,0,*79
1499461219.61,58280,17.06,74112.8,4.05,-13.15,-12.89,0,*7F
1499461220.85,58281,17.06,74110.5,4.05,-13.19,-12.89,0,*72
1499461222.11,58282,17.06,74108.0,4.05,-13.19,-12.79,0,*7E
1499461223.32,58283,17.06,74106.0,4.07,-13.15,-12.65,0,*7C
1499461224.58,58284,17.06,74102.3,4.05,-13.15,-12.75,0,*78
1499461225.82,58285,17.06,74106.3,4.05,-13.15,-12.61,0,*7C
1499461227.08,58286,17.06,74104.5,4.05,-13.19,-12.53,0,*72
1499461228.28,58287,17.06,74102.0,4.03,-13.19,-12.43,0,*74
1499461229.49,58288,17.06,74096.8,4.03,-13.19,-12.43,0,*7B
1499461230.72,58289,17.06,74092.0,4.05,-13.23,-12.39,0,*78
1499461231.97,58290,17.06,74090.5,4.05,-13.33,-12.47,0,*78
1499461233.22,58291,17.06,74094.0,4.05,-13.33,-12.47,0,*79
1499461234.48,58292,17.06,74092.3,4.05,-13.33,-12.39,0,*73
1499461235.71,58293,17.06,74112.3,4.05,-13.23,-12.39,0,*73
1499461236.91,58294,17.06,74110.3,4.03,-13.23,-12.43,0,*7F
1499461238.14,58295,17.06,74106.8,4.03,-12.97,-12.11,0,*77
1499461239.38,58296,17.06,74102.0,4.03,-12.71,-11.85,0,*72
1499461240.66,58297,17.06,74096.5,4.05,-12.61,-11.81,0,*70
1499461241.91,58298,17.06,74094.0,4.05,-12.47,-11.67,0,*73
1499461243.19,58299,17.06,74090.8,4.05,-12.65,-11.89,0,*72
1499461244.46,58300,17.06,74094.8,4.05,-12.61,-11.77,0,*76
1499461245.72,58301,17.06,74082.5,4.07,-12.53,-11.67,0,*75
1499461246.97,58302,17.06,74094.8,4.07,-12.65,-11.67,0,*73
1499461248.2,58303,17.06,74096.5,4.07,-12.93,-11.89,0,*7B
1499461249.46,58304,17.06,74096.8,4.07,-13.01,-11.89,0,*76
1499461250.68,58305,17.06,74098.3,4.07,-13.07,-11.89,0,*71
1499461251.93,58306,17.06,74096.8,4.07,-12.79,-11.55,0,*7B
1499461253.19,58307,17.06,74092.8,4.05,-12.65,-11.45,0,*74
1499461254.43,58308,17.06,74088.8,4.07,-12.65,-11.33,0,*78
1499461255.67,58309,17.06,74092.0,4.07,-12.61,-11.33,0,*7D
1499461256.94,58310,17.06,74094.5,4.09,-12.61,-11.33,0,*7B
1499461258.2,58311,17.06,74102.5,4.09,-12.75,-11.45,0,*7E
1499461259.47,58312,17.06,74108.8,4.09,-12.83,-11.51,0,*71
1499461260.74,58313,17.06,74106.5,4.09,-12.83,-11.29,0,*7F
1499461262.0,58314,17.06,74102.8,4.09,-12.89,-11.29,0,*72
1499461263.28,58315,17.06,74102.5,4.09,-12.75,-11.07,0,*7C
1499461264.54,58316,17.06,74098.0,4.07,-12.75,-11.07,0,*71
1499461265.8,58317,17.06,74104.8,4.07,-12.75,-11.07,0,*70
1499461267.05,58318,17.06,74100.0,4.07,-12.61,-10.79,0,*72
1499461268.3,58319,17.06,74096.8,4.09,-12.47,-10.79,0,*79
1499461269.55,58320,17.06,74100.3,4.09,-12.61,-10.89,0,*78
1499461270.78,58321,17.06,74098.5,4.11,-12.57,-10.93,0,*7E
1499461272.01,58322,17.06,74096.3,4.09,-12.47,-10.89,0,*7E
1499461273.26,58323,17.06,74096.0,4.09,-12.47,-10.79,0,*70
1499461274.52,58324,17.06,74092.0,4.09,-12.47,-10.75,0,*7B
1499461275.74,58325,17.06,74094.5,4.07,-12.53,-10.85,0,*7E
1499461277.0,58326,17.06,74092.0,4.07,-12.53,-10.79,0,*7E
1499461278.25,58327,17.06,74094.3,4.09,-12.43,-10.75,0,*7C
1499461279.5,58328,17.06,74092.8,4.09,-12.43,-10.75,0,*73
1499461280.74,58329,17.06,74096.3,4.11,-12.29,-10.67,0,*74
1499461282.0,58330,17.06,74098.3,4.09,-12.29,-10.67,0,*75
1499461283.24,58331,17.06,74100.8,4.11,-12.25,-10.67,0,*71
1499461284.5,58332,17.06,74102.0,4.09,-12.29,-10.75,0,*74
1499461285.76,58333,17.06,74102.8,4.09,-12.29,-10.75,0,*75
1499461286.98,58334,17.06,74100.5,4.07,-12.53,-10.85,0,*7E
1499461288.21,58335,17.06,74100.3,4.07,-12.47,-10.71,0,*71
1499461289.47,58336,17.06,74096.5,4.07,-12.53,-10.67,0,*70
1499461290.67,58337,17.06,74092.8,4.07,-12.39,-10.57,0,*7E
1499461291.91,58338,17.06,74094.3,4.09,-12.29,-10.35,0,*7A
1499461293.16,58339,17.06,74094.3,4.09,-12.15,-10.23,0,*73
1499461294.42,58340,17.06,74096.3,4.09,-11.97,-10.05,0,*70
1499461295.69,58341,17.06,74094.3,4.09,-11.77,-9.83,0,*49
1499461296.93,58342,17.06,74094.3,4.07,-11.77,-9.83,0,*44
1499461298.16,58343,17.06,74094.3,4.07,-11.55,-9.71,0,*48
1499461299.36,58344,17.06,74094.3,4.07,-11.45,-9.71,0,*4E
1499461300.59,58345,17.06,74094.8,4.07,-11.45,-9.53,0,*4F
1499461301.81,58346,17.06,74092.3,4.07,-11.33,-9.27,0,*4E
1499461303.01,58347,17.06,74098.0,4.07,-11.23,-9.27,0,*4E
1499461304.2,58348,17.06,74098.5,4.07,-11.11,-9.31,0,*47
1499461305.42,58349,17.06,74104.0,4.07,-11.11,-9.45,0,*45
1499461306.64,58350,17.06,74100.3,4.07,-11.23,-9.57,0,*4F
1499461307.87,58351,17.06,74100.0,4.07,-11.45,-9.53,0,*4A
1499461309.14,58352,17.06,74092.5,4.05,-11.67,-9.41,0,*48
1499461310.36,58353,17.06,74092.5,4.07,-11.77,-9.19,0,*47
1499461311.61,58354,17.06,74102.5,4.09,-11.85,-8.89,0,*4B
1499461312.85,58355,17.06,74104.0,4.07,-11.81,-8.51,0,*45
1499461314.09,58356,17.06,74104.3,4.07,-11.51,-7.91,0,*48
1499461315.32,58357,17.06,74102.3,4.07,-10.97,-7.65,0,*49
1499461316.54,58358,17.06,74110.3,4.07,-10.49,-7.65,0,*45
1499461317.75,58359,17.06,74106.8,4.07,-10.09,-7.65,0,*40
1499461318.94,58360,17.06,74106.5,4.07,-10.09,-7.53,0,*4F
1499461320.14,58361,17.06,74100.3,4.09,-10.05,-7.53,0,*4C
1499461321.39,58362,17.06,74100.5,4.09,-10.05,-7.61,0,*4E
1499461322.63,58363,17.06,74100.3,4.09,-9.67,-7.39,0,*7E
1499461323.87,58364,17.06,74100.5,4.09,-9.37,-7.53,0,*70
1499461325.11,58365,17.06,74096.3,4.09,-9.27,-7.95,0,*7A
1499461326.3,58366,17.06,74096.5,4.11,-9.23,-8.21,0,*74
1499461327.51,58367,17.06,74100.5,4.09,-9.27,-8.67,0,*7A
1499461328.75,58368,17.06,74100.0,4.09,-9.67,-9.41,0,*74
1499461330.01,58369,17.06,74102.8,4.09,-9.83,-9.61,0,*7D
1499461331.24,58370,17.06,74110.0,4.09,-10.35,-10.05,0,*7A
1499461332.5,58371,17.06,74108.5,4.09,-10.63,-10.19,0,*75
1499461333.73,58372,17.06,74102.8,4.09,-10.89,-10.35,0,*7C
1499461334.94,58373,17.06,74102.8,4.11,-11.15,-10.49,0,*7B
1499461336.2,58374,17.06,74096.5,4.09,-11.45,-10.79,0,*73
1499461337.48,58375,17.06,74114.0,4.09,-11.73,-11.07,0,*7F
1499461338.76,58376,17.06,74096.3,4.09,-11.77,-11.07,0,*78
1499461340.01,58377,17.06,74094.0,4.11,-11.77,-11.07,0,*70
1499461341.26,58378,17.06,74088.0,4.09,-11.97,-11.45,0,*7E
1499461342.51,58379,17.06,74088.5,4.09,-12.03,-11.51,0,*74
1499461343.74,58380,17.06,74088.3,4.11,-11.85,-11.41,0,*77
1499461344.97,58381,17.06,74090.3,4.11,-11.89,-11.41,0,*7A
1499461346.21,58382,17.06,74084.3,4.11,-11.89,-11.33,0,*7C
1499461347.44,58383,17.06,74084.5,4.11,-11.77,-11.15,0,*78
1499461348.69,58384,17.06,74086.3,4.13,-11.93,-11.11,0,*73
1499461349.94,58385,17.06,74088.0,4.13,-11.93,-10.85,0,*7E
1499461351.2,58386,17.06,74080.3,4.17,-11.67,-10.45,0,*7E
1499461352.46,58387,17.06,74078.3,4.17,-11.63,-10.27,0,*7F
1499461353.69,58388,17.06,74074.3,4.19,-11.67,-10.27,0,*7A
1499461354.92,58389,17.06,74082.3,4.19,-11.77,-10.27,0,*7A
1499461356.15,58390,17.06,74048.3,4.19,-12.15,-10.57,0,*72
1499461357.4,58391,17.06,74066.5,4.19,-12.07,-10.41,0,*77
1499461358.66,58392,17.06,74060.5,4.19,-12.15,-10.41,0,*77
1499461359.88,58393,17.06,74066.8,4.19,-12.15,-10.45,0,*72
1499461361.11,58394,17.06,74068.0,4.21,-12.21,-10.49,0,*75
1499461362.37,58395,17.06,74074.3,4.19,-12.35,-10.67,0,*76
1499461363.57,58396,17.06,74082.8,4.19,-12.21,-10.85,0,*7C
1499461364.83,58397,17.06,74084.0,4.19,-11.93,-10.79,0,*74
1499461366.05,58398,17.06,74072.0,4.19,-11.93,-10.85,0,*78
1499461367.28,58399,17.06,74080.0,4.19,-12.15,-10.97,0,*77
1499461368.51,58400,17.06,74078.5,4.19,-11.93,-10.93,0,*79
1499461369.73,58401,17.06,74076.3,4.19,-11.81,-10.97,0,*7F
1499461370.96,58402,17.06,74074.5,4.19,-11.77,-10.97,0,*75
1499461372.19,58403,17.06,74074.8,4.19,-11.67,-10.97,0,*75
1499461373.42,58404,17.06,74078.8,4.19,-11.67,-10.97,0,*72
1499461374.62,58405,17.06,74078.0,4.19,-11.23,-10.93,0,*77
1499461375.84,58406,17.06,74080.5,4.19,-10.97,-11.33,0,*71
1499461377.09,58407,17.06,74078.5,4.19,-11.55,-11.63,0,*7A
1499461378.34,58408,17.06,74082.3,4.19,-11.77,-11.67,0,*71
1499461379.59,58409,17.06,74076.3,4.19,-12.15,-11.81,0,*7F
1499461380.83,58410,17.06,74072.5,4.19,-12.15,-11.51,0,*7A
1499461382.06,58411,17.06,74084.0,4.19,-12.07,-11.19,0,*74
1499461383.26,58412,17.06,74080.3,4.19,-12.21,-10.93,0,*70
1499461384.46,58413,17.06,74084.5,4.19,-12.25,-10.23,0,*7E
1499461385.69,58414,17.06,74088.5,4.19,-11.93,-9.01,0,*4F
1499461386.93,58415,17.06,74090.3,4.21,-11.19,-7.77,0,*48
1499461388.14,58416,17.06,74092.0,4.21,-10.05,-6.43,0,*41
1499461389.34,58417,17.06,74092.0,4.19,-8.89,-5.47,0,*71
1499461390.58,58418,17.06,74092.3,4.19,-7.77,-5.03,0,*70
1499461391.79,58419,17.06,74094.8,4.19,-6.85,-4.93,0,*75
1499461393.03,58420,17.06,74098.8,4.21,-6.09,-4.85,0,*77
1499461394.25,58421,17.06,74100.3,4.21,-6.05,-4.65,0,*74
1499461395.49,58422,17.06,74106.3,4.21,-5.81,-4.37,0,*7F
1499461396.71,58423,17.06,74102.5,4.23,-5.65,-4.61,0,*75
1499461397.98,58424,17.06,74110.3,4.21,-5.69,-5.15,0,*7E
1499461399.22,58425,17.06,74104.8,4.21,-5.93,-5.39,0,*74
1499461400.46,58426,17.06,74110.0,4.23,-6.19,-5.11,0,*7E
1499461401.7,58427,17.06,74110.8,4.23,-6.23,-4.85,0,*7A
1499461402.92,58428,17.06,74116.3,4.23,-6.01,-5.03,0,*7A
1499461404.16,58429,17.06,74110.3,4.23,-5.89,-5.69,0,*74
1499461405.35,58430,17.06,74110.8,4.23,-6.05,-6.31,0,*75
1499461406.53,58431,17.06,74102.5,4.23,-6.43,-6.59,0,*78
1499461407.75,58432,17.06,74098.3,4.23,-6.81,-6.97,0,*77
1499461408.96,58433,17.06,74102.0,4.23,-7.01,-7.15,0,*74
1499461410.2,58434,17.06,74100.3,4.23,-7.35,-7.73,0,*74
1499461411.41,58435,17.06,74098.8,4.23,-7.53,-7.95,0,*7D
1499461412.64,58436,17.06,74102.8,4.23,-7.91,-7.77,0,*7C
1499461413.82,58437,17.06,74100.3,4.23,-8.29,-7.49,0,*7C
1499461415.04,58438,17.06,74100.5,4.23,-8.55,-6.93,0,*7E
1499461416.25,58439,17.06,74104.3,4.23,-8.55,-6.23,0,*74
1499461417.49,58440,17.06,74104.3,4.21,-8.59,-5.03,0,*75
1499461418.71,58441,17.06,74104.3,4.21,-8.29,-3.75,0,*74
1499461419.94,58442,17.06,74102.3,4.23,-7.61,-2.59,0,*79
1499461421.13,58443,17.06,74104.8,4.23,-6.47,-1.55,0,*72
1499461422.36,58444,17.06,74104.0,4.23,-5.27,-0.97,0,*4F
1499461423.54,58445,17.06,74106.3,4.23,-4.09,-0.33,0,*4D
1499461424.74,58446,17.06,74114.8,4.23,-2.79,0.37,0,*66
1499461425.97,58447,17.06,74106.8,4.23,-1.47,0.63,0,*68
1499461427.19,58448,17.06,74104.3,4.25,-0.45,0.59,0,*5B
1499461428.44,58449,17.06,74102.3,4.25,-0.27,0.55,0,*52
1499461429.66,58450,17.06,74100.3,4.25,-0.41,0.55,0,*5A
1499461430.89,58451,17.06,74092.5,4.25,-0.69,0.47,0,*52
1499461432.11,58452,17.06,74088.0,4.25,-0.81,0.59,0,*58
1499461433.33,58453,17.06,74084.0,4.25,-0.77,0.67,0,*5D
1499461434.52,58454,17.06,74086.3,4.27,-0.77,0.59,0,*55
1499461435.72,58455,17.06,74084.8,4.27,-0.65,0.59,0,*57
1499461436.89,58456,17.06,74090.0,4.27,-0.41,0.43,0,*59
1499461438.1,58457,17.06,74100.5,4.27,-0.27,0.41,0,*5A
1499461439.31,58458,17.06,74104.5,4.25,-0.07,0.41,0,*65
1499461440.52,58459,17.06,74106.5,4.27,0.17,0.55,0,*7F
1499461441.73,58460,17.06,74110.3,4.27,0.21,0.55,0,*70
1499461442.94,58461,17.06,74104.5,4.27,0.21,0.47,0,*72
1499461444.15,58462,17.06,74102.5,4.27,0.29,0.41,0,*7F
1499461445.33,58463,17.06,74098.3,4.27,0.29,0.05,0,*4E
1499461446.54,58464,17.06,74096.0,4.29,0.25,-0.15,0,*57
1499461447.73,58465,17.06,74098.8,4.29,0.13,-0.53,0,*51
1499461448.92,58466,17.06,74100.0,4.27,-0.03,-0.93,0,*4C
1499461450.12,58467,17.06,74100.3,4.27,-0.27,-1.29,0,*4B
1499461451.3,58468,17.06,74092.5,4.27,-0.69,-1.51,0,*41
1499461452.51,58469,17.06,74090.0,4.27,-1.01,-1.51,0,*7F
1499461453.7,58470,17.06,74070.0,4.27,-1.29,-1.21,0,*7A
1499461454.89,58471,17.06,74078.3,4.27,-1.29,-1.21,0,*7B
1499461456.11,58472,17.06,74078.0,4.27,-1.33,-1.39,0,*7A
1499461457.29,58473,17.06,74086.5,4.27,-1.33,-1.51,0,*75
1499461458.5,58474,17.06,74098.8,4.27,-1.39,-1.55,0,*7C
1499461459.74,58475,17.06,74098.5,4.27,-1.39,-1.13,0,*7F
1499461460.95,58476,17.06,74100.5,4.29,-1.09,-0.77,0,*42
1499461462.19,58477,17.06,74092.3,4.29,-1.01,-0.89,0,*4A
1499461463.37,58478,17.06,74090.5,4.29,-1.25,-0.77,0,*42
1499461464.56,58479,17.06,74084.0,4.29,-1.51,-0.77,0,*40
1499461465.75,58480,17.06,74092.8,4.29,-1.75,-0.49,0,*4D
1499461466.92,58481,17.06,74092.0,4.29,-1.75,0.01,0,*5D
1499461468.16,58482,17.06,74090.8,4.29,-1.47,0.51,0,*6A
1499461469.42,58483,17.06,74086.0,4.31,-1.13,0.79,0,*69
1499461470.59,58484,17.06,74086.8,4.29,-0.77,1.05,0,*6E
1499461471.8,58485,17.06,74076.8,4.29,-0.49,1.21,0,*64
1499461473.01,58486,17.06,74078.5,4.29,-0.11,1.37,0,*6D
1499461474.19,58487,17.06,74076.5,4.29,0.01,1.43,0,*73
1499461475.41,58488,17.06,74074.5,4.29,0.21,1.55,0,*49
1499461476.6,58489,17.06,74070.3,4.29,0.43,1.43,0,*4B
1499461477.79,58490,17.06,74070.3,4.29,0.43,1.21,0,*47
1499461478.98,58491,17.06,74072.5,4.29,0.47,0.97,0,*7E
1499461480.2,58492,17.06,74062.0,4.29,0.63,0.75,0,*77
1499461481.42,58493,17.06,74054.0,4.29,0.71,0.59,0,*7B
1499461482.61,58494,17.06,74000.0,4.29,0.75,0.43,0,*73
1499461483.82,58495,17.06,73998.3,4.27,0.71,0.33,0,*7F
1499461485.01,58496,17.06,74018.0,4.29,0.75,0.43,0,*71
1499461486.23,58497,17.06,74030.3,4.29,0.71,0.21,0,*70
1499461487.42,58498,17.06,74058.3,4.29,0.59,0.01,0,*47
1499461488.62,58499,17.06,74058.3,4.29,0.37,-0.15,0,*56
1499461489.82,58500,17.06,74060.3,4.29,0.13,-0.41,0,*50
1499461491.01,58501,17.06,74058.3,4.29,-0.03,-0.73,0,*4C
1499461492.2,58502,17.06,74058.3,4.29,-0.11,-1.17,0,*4F
1499461493.43,58503,17.06,74070.5,4.29,-0.23,-1.99,0,*49
1499461494.65,58504,17.06,74072.0,4.29,-0.61,-2.71,0,*4D
1499461495.88,58505,17.06,74070.5,4.29,-1.09,-3.51,0,*70
1499461497.1,58506,17.06,74070.5,4.29,-1.83,-4.05,0,*77
1499461498.34,58507,17.06,74078.8,4.31,-2.75,-3.95,0,*7B
1499461499.58,58508,17.06,74090.0,4.31,-3.43,-3.75,0,*7E
1499461500.8,58509,17.06,74074.5,4.31,-3.95,-3.31,0,*74
1499461502.02,58510,17.06,74082.5,4.31,-4.09,-2.87,0,*72
1499461503.27,58511,17.06,74088.5,4.31,-4.25,-2.47,0,*71
1499461504.49,58512,17.06,74082.5,4.31,-4.25,-1.79,0,*7C
1499461505.7,58513,17.06,74082.3,4.31,-4.13,-1.25,0,*71
1499461506.93,58514,17.06,74088.5,4.29,-4.01,-0.73,0,*4E
1499461508.16,58515,17.06,74088.3,4.31,-3.43,-0.07,0,*74
1499461509.4,58516,17.06,74086.8,4.31,-2.87,0.51,0,*60
1499461510.63,58517,17.06,74084.0,4.31,-2.23,0.87,0,*64
1499461511.86,58518,17.06,74086.5,4.31,-1.67,1.09,0,*5F
1499461513.12,58519,17.06,74082.8,4.31,-1.09,1.25,0,*58
1499461514.35,58520,17.06,74084.5,4.31,-0.37,1.37,0,*6D
1499461515.54,58521,17.06,74088.8,4.31,0.05,1.41,0,*71
1499461516.79,58522,17.06,74088.0,4.31,0.55,1.25,0,*45
1499461518.0,58523,17.06,74086.0,4.31,1.01,1.01,0,*72
1499461519.26,58524,17.06,74098.5,4.31,1.37,0.51,0,*44
1499461520.47,58525,17.06,74094.3,4.31,1.41,-0.33,0,*6D
1499461521.68,58526,17.06,74096.3,4.29,0.87,-1.51,0,*69
1499461522.91,58527,17.06,74092.3,4.31,0.01,-2.71,0,*5E
1499461524.15,58528,17.06,74090.8,4.31,-1.33,-3.59,0,*77
1499461525.37,58529,17.06,74092.5,4.31,-2.23,-4.09,0,*76
1499461526.58,58530,17.06,74084.0,4.31,-3.11,-4.49,0,*7A
1499461527.81,58531,17.06,74088.3,4.31,-3.83,-4.99,0,*7D
1499461529.06,58532,17.06,74090.8,4.31,-4.25,-5.19,0,*7C
1499461530.27,58533,17.06,74092.0,4.29,-4.81,-5.47,0,*71
1499461531.51,58534,17.06,74098.0,4.31,-5.11,-5.43,0,*73
1499461532.72,58535,17.06,74092.8,4.29,-5.19,-5.43,0,*73
1499461533.94,58536,17.06,74090.5,4.29,-5.35,-5.31,0,*7B
1499461535.19,58537,17.06,74094.8,4.31,-5.43,-4.89,0,*70
1499461536.44,58538,17.06,74090.0,4.31,-5.31,-4.61,0,*7C
1499461537.7,58539,17.06,74088.3,4.31,-5.15,-4.01,0,*7D
1499461538.94,58540,17.06,74090.0,4.31,-4.73,-3.75,0,*76
1499461540.16,58541,17.06,74092.0,4.31,-4.13,-3.75,0,*71
1499461541.39,58542,17.06,74096.8,4.31,-3.75,-4.21,0,*73
1499461542.64,58543,17.06,74088.5,4.31,-3.43,-4.61,0,*73
1499461543.92,58544,17.06,74100.5,4.31,-3.51,-4.89,0,*71
1499461545.13,58545,17.06,74104.3,4.31,-4.09,-4.99,0,*7B
1499461546.37,58546,17.06,74112.5,4.31,-4.53,-4.89,0,*76
1499461547.62,58547,17.06,74102.5,4.31,-4.89,-4.53,0,*77
1499461548.83,58548,17.06,74090.8,4.29,-5.07,-4.17,0,*76
1499461550.06,58549,17.06,74092.3,4.31,-4.53,-3.71,0,*79
1499461551.33,58550,17.06,74088.0,4.31,-4.01,-3.47,0,*73
1499461552.57,58551,17.06,74084.5,4.29,-3.51,-3.47,0,*79
1499461553.78,58552,17.06,74082.0,4.29,-2.99,-3.67,0,*7D
1499461554.99,58553,17.06,74082.5,4.29,-2.75,-4.17,0,*7E
1499461556.23,58554,17.06,74074.0,4.31,-2.47,-4.49,0,*7A
1499461557.45,58555,17.06,74070.3,4.33,-2.35,-5.11,0,*70
1499461558.67,58556,17.06,74066.3,4.29,-2.51,-6.47,0,*7A
1499461559.89,58557,17.06,74080.5,4.31,-2.99,-7.49,0,*79
1499461561.11,58558,17.06,74080.8,4.33,-4.13,-7.61,0,*7A
1499461562.35,58559,17.06,74082.5,4.31,-5.15,-6.69,0,*77
1499461563.61,58560,17.06,74084.3,4.31,-5.69,-5.77,0,*7A
1499461564.85,58561,17.06,74084.0,4.35,-5.73,-4.49,0,*78
1499461566.09,58562,17.06,74084.3,4.31,-5.27,-3.83,0,*7F
1499461567.32,58563,17.06,74082.0,4.31,-4.73,-3.35,0,*73
1499461568.54,58564,17.06,74090.8,4.31,-4.29,-2.87,0,*73
1499461569.81,58565,17.06,74088.3,4.31,-3.59,-2.59,0,*71
1499461571.05,58566,17.06,74082.0,4.31,-2.83,-2.59,0,*74
1499461572.27,58567,17.06,74078.0,4.31,-2.31,-2.87,0,*7F
1499461573.51,58568,17.06,74082.0,4.31,-2.11,-3.19,0,*74
1499461574.77,58569,17.06,74080.3,4.31,-2.11,-3.63,0,*78
1499461576.02,58570,17.06,74086.3,4.31,-2.11,-4.09,0,*7B
1499461577.24,58571,17.06,74084.8,4.31,-2.23,-4.65,0,*71
1499461578.48,58572,17.06,74094.5,4.31,-2.59,-5.39,0,*77
1499461579.7,58573,17.06,74096.0,4.31,-2.95,-6.09,0,*76
1499461580.94,58574,17.06,74098.5,4.31,-3.51,-6.85,0,*7C
1499461582.18,58575,17.06,74096.3,4.31,-4.13,-7.39,0,*7A
1499461583.44,58576,17.06,74092.0,4.31,-4.77,-7.95,0,*7D
1499461584.65,58577,17.06,74084.3,4.31,-5.39,-8.71,0,*72
1499461585.87,58578,17.06,74084.0,4.31,-5.97,-9.23,0,*7F
1499461587.11,58579,17.06,74084.3,4.31,-6.55,-9.41,0,*77
1499461588.36,58580,17.06,74086.0,4.31,-7.15,-9.83,0,*7A
1499461589.6,58581,17.06,74086.3,4.31,-7.39,-9.93,0,*74
1499461590.85,58582,17.06,74098.3,4.31,-7.65,-10.19,0,*44
1499461592.1,58583,17.06,74100.0,4.29,-8.11,-10.71,0,*4E
1499461593.33,58584,17.06,74102.3,4.29,-8.45,-10.79,0,*40
1499461594.58,58585,17.06,74094.8,4.29,-8.51,-11.07,0,*4C
1499461595.8,58586,17.06,74096.3,4.27,-9.31,-11.59,0,*4D
1499461596.98,58587,17.06,74098.0,4.27,-10.01,-10.85,0,*77
1499461598.19,58588,17.06,74102.5,4.27,-9.93,-9.45,0,*7F
1499461599.38,58589,17.06,74096.3,4.29,-9.19,-8.75,0,*70
1499461600.61,58590,17.06,74096.0,4.29,-8.85,-7.61,0,*76
1499461601.8,58591,17.06,74088.8,4.29,-8.25,-6.35,0,*7D
1499461602.98,58592,17.06,74088.8,4.27,-7.49,-5.47,0,*73
1499461604.17,58593,17.06,74092.0,4.27,-6.51,-5.35,0,*7F
1499461605.38,58594,17.06,74088.5,4.29,-5.73,-6.01,0,*71
1499461606.59,58595,17.06,74088.8,4.29,-5.61,-6.77,0,*72
1499461607.8,58596,17.06,74088.3,4.27,-5.69,-6.89,0,*76
1499461609.02,58597,17.06,74086.0,4.29,-5.35,-7.01,0,*71
1499461610.23,58598,17.06,74086.0,4.27,-5.47,-7.91,0,*7C
1499461611.44,58599,17.06,74090.5,4.29,-5.81,-8.93,0,*74
1499461612.63,58600,17.06,74090.5,4.29,-6.69,-9.75,0,*7B
1499461613.86,58601,17.06,74088.5,4.29,-6.93,-10.45,0,*44
1499461615.11,58602,17.06,74088.0,4.29,-7.95,-11.93,0,*4A
1499461616.32,58603,17.06,74090.3,4.27,-8.97,-12.15,0,*45
1499461617.56,58604,17.06,74088.8,4.27,-9.45,-12.83,0,*43
1499461618.77,58605,17.06,74090.5,4.27,-10.75,-13.69,0,*7C
1499461620.02,58606,17.06,74094.8,4.29,-11.51,-13.87,0,*76
1499461621.25,58607,17.06,74088.8,4.29,-11.93,-14.37,0,*75
1499461622.47,58608,17.06,74084.5,4.27,-12.43,-14.83,0,*75
1499461623.68,58609,17.06,74084.8,4.29,-12.93,-15.25,0,*7A
1499461624.91,58610,17.06,74084.5,4.27,-13.37,-15.25,0,*73
1499461626.16,58611,17.06,74082.3,4.27,-13.37,-14.55,0,*74
1499461627.38,58612,17.06,74088.8,4.27,-12.65,-13.55,0,*76
1499461628.59,58613,17.06,74084.3,4.27,-11.85,-13.15,0,*7E
1499461629.83,58614,17.06,74086.5,4.27,-11.81,-12.57,0,*7A
1499461631.06,58615,17.06,74082.3,4.27,-11.59,-10.35,0,*78
1499461632.3,58616,17.06,74090.8,4.27,-10.71,-8.51,0,*4B
1499461633.52,58617,17.06,74086.8,4.25,-8.93,-6.51,0,*73
1499461634.75,58618,17.06,74090.8,4.25,-6.89,-5.65,0,*7D
1499461636.02,58619,17.06,74092.3,4.25,-5.23,-5.65,0,*7F
1499461637.27,58620,17.06,74078.3,4.25,-4.85,-7.69,0,*76
1499461638.48,58621,17.06,74070.0,4.27,-6.31,-9.49,0,*74
1499461639.73,58622,17.06,74066.3,4.25,-7.57,-10.15,0,*45
1499461640.98,58623,17.06,74084.5,4.25,-8.51,-10.35,0,*4F
1499461642.23,58624,17.06,74078.5,4.25,-8.11,-10.15,0,*4E
1499461643.44,58625,17.06,74080.8,4.25,-8.97,-11.11,0,*44
1499461644.66,58626,17.06,74074.5,4.25,-9.67,-11.45,0,*48
1499461645.91,58627,17.06,74072.3,4.25,-11.15,-11.67,0,*75
1499461647.13,58628,17.06,74082.8,4.25,-11.45,-9.75,0,*45
1499461648.36,58629,17.06,74092.8,4.25,-9.53,-6.89,0,*76
1499461649.58,58630,17.06,74090.3,4.25,-7.19,-5.51,0,*78
1499461650.79,58631,17.06,74096.0,4.25,-5.47,-5.39,0,*7E
1499461652.04,58632,17.06,74094.5,4.25,-4.69,-5.19,0,*72
1499461653.28,58633,17.06,74098.8,4.25,-4.45,-4.85,0,*79
1499461654.49,58634,17.06,74096.5,4.25,-3.95,-5.51,0,*7C
1499461655.72,58635,17.06,74088.0,4.25,-4.29,-7.05,0,*7E
1499461656.98,58636,17.06,74080.0,4.25,-4.85,-7.99,0,*7E
1499461658.18,58637,17.06,74084.8,4.25,-5.47,-9.23,0,*7F
1499461659.45,58638,17.06,74078.5,4.25,-6.97,-12.57,0,*47
1499461660.69,58639,17.06,74078.0,4.25,-9.45,-13.65,0,*46
1499461661.93,58640,17.06,74078.0,4.25,-11.85,-13.51,0,*7A
1499461663.18,58641,17.06,74074.8,4.25,-11.67,-12.29,0,*79
1499461664.41,58642,17.06,74072.3,4.25,-10.57,-10.45,0,*70
1499461665.64,58643,17.06,74086.8,4.25,-7.87,-7.61,0,*7A
1499461666.91,58644,17.06,74086.0,4.25,-6.19,-6.97,0,*73
1499461668.12,58645,17.06,74072.5,4.25,-6.77,-5.51,0,*73
1499461669.36,58646,17.06,74078.8,4.25,-5.89,-4.49,0,*7A
1499461670.56,58647,17.06,74076.8,4.25,-4.61,-4.45,0,*70
1499461671.8,58648,17.06,74080.3,4.27,-3.71,-5.85,0,*76
1499461673.03,58649,17.06,74078.8,4.25,-4.85,-8.17,0,*7F
1499461674.24,58650,17.06,74074.5,4.25,-7.49,-10.27,0,*4E
1499461675.48,58651,17.06,74084.0,4.25,-9.23,-7.91,0,*76
1499461676.74,58652,17.06,74080.8,4.25,-7.69,-4.69,0,*71
1499461677.96,58653,17.06,74080.3,4.25,-3.91,-2.91,0,*72
1499461679.22,58654,17.06,74082.0,4.25,-3.51,-4.81,0,*7E
1499461680.46,58655,17.06,74082.8,4.23,-3.43,-5.69,0,*7D
1499461681.72,58656,17.06,74082.3,4.25,-5.65,-7.77,0,*77
1499461682.93,58657,17.06,74088.3,4.25,-6.05,-6.55,0,*72
1499461684.17,58658,17.06,74088.0,4.25,-6.55,-7.77,0,*79
1499461685.37,58659,17.06,74088.0,4.27,-8.93,-10.15,0,*4C
1499461686.61,58660,17.06,74088.0,4.29,-10.15,-10.41,0,*7E
1499461687.85,58661,17.06,74092.8,4.29,-10.67,-10.15,0,*7B
1499461689.1,58662,17.06,74096.5,4.29,-10.71,-7.69,0,*42
1499461690.34,58663,17.06,74094.3,4.31,-7.65,-5.97,0,*7A
1499461691.55,58664,17.06,74086.3,4.31,-5.39,-5.43,0,*7F
1499461692.77,58665,17.06,74086.5,4.33,-4.99,-4.89,0,*70
1499461693.99,58666,17.06,74090.0,4.33,-4.01,-3.95,0,*78
1499461695.19,58667,17.06,74092.8,4.33,-3.75,-3.87,0,*7E
1499461696.43,58668,17.06,74088.5,4.33,-5.03,-5.69,0,*70
1499461697.67,58669,17.06,74088.3,4.33,-8.03,-7.01,0,*70
1499461698.91,58670,17.06,74088.8,4.33,-8.51,-5.11,0,*7C
1499461700.15,58671,17.06,74096.5,4.33,-7.39,-4.73,0,*79
1499461701.34,58672,17.06,74088.5,4.33,-6.73,-4.49,0,*7C
1499461702.53,58673,17.06,74094.0,4.33,-7.83,-4.13,0,*7C
1499461703.75,58674,17.06,74094.3,4.33,-7.77,-2.23,0,*75
1499461704.97,58675,17.06,74092.8,4.33,-3.83,0.55,0,*65
1499461706.17,58676,17.06,74092.3,4.33,-0.73,1.47,0,*68
1499461707.39,58677,17.06,74094.5,4.35,-0.33,1.25,0,*6F
1499461708.61,58678,17.06,74090.3,4.35,-0.57,0.79,0,*5A
1499461709.83,58679,17.06,74090.3,4.39,-0.65,0.95,0,*54
1499461711.02,58680,17.06,74086.8,4.39,-0.65,1.41,0,*6A
1499461712.25,58681,17.06,74080.5,4.35,-0.23,1.83,0,*6B